Regional Weather Roundup
Issued by NWS

Home | Current Version | Previous Version | Graphics & Text | Print | Product List | Glossary On
Versions: 1 2 3 4 5 6 7 8 9 10 11 12 13 14 15 16 17 18 19 20 21 22 23 24 25 26 27
000
ASUS45 KSLC 230010
RWRUT

UTAH REGIONAL WEATHER ROUNDUP
NATIONAL WEATHER SERVICE SALT LAKE CITY UT
600 PM MDT FRI SEP 22 2017

UTZ001>011-023>025-230100-

NORTHERN UTAH

CITY           SKY/WX    TMP DP  RH WIND       PRES   REMARKS
BRIGHAM CITY   MOSUNNY   52  33  48 S3        29.95R
HILL AFB       CLOUDY    47  35  64 W7        29.95R
LOGAN          PTSUNNY   51  36  56 N6        29.92R
OGDEN          CLOUDY    49  37  63 VRB3      29.94R
SALT LAKE CITY CLOUDY    52  39  61 N8        29.94R
TOOELE VALLEY  CLOUDY    50  37  62 N6        29.95R
WENDOVER       CLOUDY    46  35  65 VRB3      29.98S
HEBER CITY     RAIN      43  36  75 SW5       29.92R
WEST JORDAN    PTSUNNY   48  44  87 NW12G17   29.96R

$$

UTZ011>015-024>027-230100-

CENTRAL/NORTHEAST UTAH

CITY           SKY/WX    TMP DP  RH WIND       PRES   REMARKS
PROVO AIRPORT  CLOUDY    49  43  80 NE6       29.94R
MOAB/CANYONLAN PTSUNNY   76  28  17 SW20G25   29.68S
DELTA          MOSUNNY   50  36  57 NW7       29.93R
PRICE          CLOUDY    57  33  40 NW21G28   29.81R
RICHFIELD      PTSUNNY   54  34  47 N5        29.91R
ROOSEVELT      SUNNY     63  34  34 W18       29.81R
VERNAL         SUNNY     65  33  30 W14G20    29.76R

$$

UTZ013>016-019>022-027-230100-

SOUTHERN UTAH

CITY           SKY/WX    TMP DP  RH WIND       PRES   REMARKS
BRYCE CANYON   SUNNY     55  19  24 SW15      29.92R
CEDAR CITY     SUNNY     59  20  22 W8        29.85S
MILFORD        MOSUNNY   53  39  59 N17       29.88R
ST GEORGE      CLOUDY    71  19  14 W12G22    29.77S
HANKSVILLE     SUNNY     73  27  17 W17G26    29.72R
KANAB          SUNNY     66  21  18 W8G20     29.84R
BLANDING         N/A     69  30  23 SW24G35   29.89S

$$

REGIONAL REPORTS     COLORADO/ARIZONA

CITY           SKY/WX    TMP DP  RH WIND       PRES   REMARKS
CRAIG, CO      CLOUDY    64  36  35 NE7       29.84F
GRAND JUNCTION SUNNY     75  30  19 SW17      29.74F
RIFLE, CO      MOSUNNY   68  30  24 W6        29.79S
MONTROSE, CO   PTSUNNY   69  34  27 SW10      29.83F
CORTEZ, CO     CLOUDY    71  27  19 SW18G26   29.85S
PAGE, AZ       SUNNY     78  16   9 S8        29.71R
GRAND CANYON   SUNNY     63  17  17 SW22G28   29.89S
KINGMAN, AZ    SUNNY     71  18  13 SW21      29.79F
FLAGSTAFF, AZ  SUNNY     59  34  39 SW18G33   29.94S

$$

REGIONAL REPORTS    NEVADA/IDAHO/WYOMING

CITY           SKY/WX    TMP DP  RH WIND       PRES   REMARKS
LAS VEGAS, NV  MOSUNNY   74  25  16 CALM      29.75F
ELY, NY        MOSUNNY   42  34  73 N9        29.97S
ELKO, NV       MOSUNNY   45  35  68 W5        29.97R
POCATELLO, ID  CLOUDY    46  37  71 S8        29.95F
BURLEY, ID     PTSUNNY   50  34  54 NW6       29.94R
FORT BRIDGER,  LGT SNOW  37  37 100 W18       29.98R WCI  26
EVANSTON, WY   CLOUDY    37  35  92 SW10      29.94S WCI  30
ROCK SPRINGS,  CLOUDY    45  41  87 NW12      29.88F

$$




USA.gov is the U.S. government's official web portal to all federal, state and local government web resources and services.